TimeCST,TemperatureF,Dew PointF,Humidity,Sea Level PressureIn,VisibilityMPH,Wind Direction,Wind SpeedMPH,Gust SpeedMPH,PrecipitationIn,Events,Conditions,WindDirDegrees,DateUTC
12:14 AM,19.4,12.2,74,29.83,10.0,SW,10.4,-,N/A,,Clear,230,2013-01-04 06:14:00
12:34 AM,19.4,12.2,74,29.84,10.0,SW,9.2,-,N/A,,Clear,230,2013-01-04 06:34:00
12:54 AM,17.6,10.4,73,29.84,10.0,SW,9.2,-,N/A,,Clear,230,2013-01-04 06:54:00
1:14 AM,17.6,10.4,73,29.84,10.0,SW,11.5,-,N/A,,Clear,230,2013-01-04 07:14:00
1:34 AM,17.6,10.4,73,29.84,10.0,SW,9.2,-,N/A,,Clear,230,2013-01-04 07:34:00
1:54 AM,17.6,10.4,73,29.84,10.0,SW,8.1,-,N/A,,Clear,230,2013-01-04 07:54:00
2:14 AM,15.8,8.6,73,29.85,10.0,SW,5.8,-,N/A,,Clear,230,2013-01-04 08:14:00
2:34 AM,17.6,10.4,73,29.85,10.0,WSW,6.9,-,N/A,,Clear,240,2013-01-04 08:34:00
2:54 AM,17.6,10.4,73,29.86,10.0,WSW,8.1,-,N/A,,Clear,250,2013-01-04 08:54:00
3:14 AM,17.6,10.4,73,29.86,10.0,West,6.9,-,N/A,,Clear,260,2013-01-04 09:14:00
3:34 AM,17.6,12.2,79,29.86,10.0,West,9.2,-,N/A,,Clear,260,2013-01-04 09:34:00
3:54 AM,17.6,12.2,79,29.88,10.0,West,8.1,-,N/A,,Clear,260,2013-01-04 09:54:00
4:14 AM,19.4,12.2,74,29.88,10.0,West,10.4,-,N/A,,Clear,260,2013-01-04 10:14:00
4:34 AM,19.4,12.2,74,29.88,10.0,West,9.2,-,N/A,,Clear,260,2013-01-04 10:34:00
4:54 AM,19.4,12.2,74,29.88,10.0,West,9.2,-,N/A,,Clear,260,2013-01-04 10:54:00
5:14 AM,17.6,12.2,79,29.89,10.0,WSW,6.9,-,N/A,,Clear,250,2013-01-04 11:14:00
5:34 AM,17.6,12.2,79,29.89,10.0,West,9.2,-,N/A,,Clear,260,2013-01-04 11:34:00
6:14 AM,17.6,12.2,79,29.91,10.0,WSW,8.1,-,N/A,,Clear,250,2013-01-04 12:14:00
6:34 AM,15.8,8.6,73,29.91,10.0,WSW,6.9,-,N/A,,Clear,250,2013-01-04 12:34:00
6:54 AM,17.6,12.2,79,29.92,10.0,West,10.4,-,N/A,,Clear,260,2013-01-04 12:54:00
7:14 AM,17.6,12.2,79,29.92,10.0,West,10.4,-,N/A,,Clear,260,2013-01-04 13:14:00
7:34 AM,17.6,10.4,73,29.92,10.0,West,10.4,-,N/A,,Clear,270,2013-01-04 13:34:00
7:54 AM,15.8,10.4,79,29.92,10.0,West,12.7,-,N/A,,Clear,270,2013-01-04 13:54:00
8:15 AM,15.8,10.4,79,29.93,10.0,West,11.5,-,N/A,,Clear,270,2013-01-04 14:15:00
8:34 AM,15.8,8.6,73,29.94,10.0,West,10.4,-,N/A,,Clear,280,2013-01-04 14:34:00
8:54 AM,15.8,8.6,73,29.95,10.0,West,10.4,-,N/A,,Clear,270,2013-01-04 14:54:00
9:15 AM,15.8,10.4,79,29.96,10.0,West,10.4,-,N/A,,Clear,270,2013-01-04 15:15:00
9:34 AM,15.8,10.4,79,29.97,10.0,West,10.4,-,N/A,,Clear,270,2013-01-04 15:34:00
9:54 AM,15.8,10.4,79,29.98,10.0,West,10.4,-,N/A,,Clear,270,2013-01-04 15:54:00
10:15 AM,17.6,10.4,73,29.99,10.0,West,9.2,-,N/A,,Clear,270,2013-01-04 16:15:00
10:34 AM,17.6,10.4,73,30.01,10.0,West,9.2,-,N/A,,Clear,270,2013-01-04 16:34:00
10:54 AM,19.4,12.2,74,30.01,10.0,West,9.2,-,N/A,,Clear,270,2013-01-04 16:54:00
11:14 AM,19.4,12.2,74,30.01,10.0,West,8.1,-,N/A,,Clear,270,2013-01-04 17:14:00
11:34 AM,19.4,12.2,74,30.01,10.0,West,8.1,-,N/A,,Clear,270,2013-01-04 17:34:00
11:54 AM,21.2,12.2,68,30.01,10.0,West,10.4,-,N/A,,Clear,270,2013-01-04 17:54:00
12:14 PM,21.2,14.0,74,30.01,10.0,West,9.2,-,N/A,,Clear,270,2013-01-04 18:14:00
12:34 PM,21.2,15.8,80,30.01,10.0,West,9.2,-,N/A,,Clear,270,2013-01-04 18:34:00
12:54 PM,21.2,15.8,80,30.01,10.0,West,10.4,-,N/A,,Clear,270,2013-01-04 18:54:00
1:14 PM,23.0,15.8,74,30.02,10.0,West,10.4,-,N/A,,Clear,270,2013-01-04 19:14:00
1:34 PM,23.0,15.8,74,30.02,10.0,West,9.2,-,N/A,,Clear,270,2013-01-04 19:34:00
1:54 PM,23.0,15.8,74,30.02,10.0,West,9.2,-,N/A,,Clear,270,2013-01-04 19:54:00
2:14 PM,24.8,15.8,69,30.02,10.0,West,8.1,-,N/A,,Clear,270,2013-01-04 20:14:00
2:34 PM,23.0,15.8,74,30.02,10.0,West,8.1,-,N/A,,Clear,270,2013-01-04 20:34:00
2:54 PM,24.8,15.8,69,30.02,10.0,West,9.2,-,N/A,,Clear,270,2013-01-04 20:54:00
3:14 PM,23.0,15.8,74,30.03,10.0,West,9.2,-,N/A,,Clear,270,2013-01-04 21:14:00
3:34 PM,24.8,15.8,69,30.03,10.0,West,6.9,-,N/A,,Clear,270,2013-01-04 21:34:00
3:54 PM,24.8,17.6,74,30.03,10.0,West,5.8,-,N/A,,Clear,260,2013-01-04 21:54:00
4:14 PM,24.8,17.6,74,30.03,10.0,West,5.8,-,N/A,,Clear,270,2013-01-04 22:14:00
4:34 PM,24.8,15.8,69,30.04,10.0,WSW,4.6,-,N/A,,Clear,250,2013-01-04 22:34:00
5:34 PM,12.2,8.6,85,30.06,10.0,SW,4.6,-,N/A,,Clear,230,2013-01-04 23:34:00
5:54 PM,17.6,12.2,79,30.06,10.0,SW,5.8,-,N/A,,Clear,230,2013-01-04 23:54:00
6:00 PM,17.6,12.2,79,30.06,10.0,WSW,4.6,-,N/A,,Clear,240,2013-01-05 00:00:00
6:34 PM,12.2,8.6,85,30.07,10.0,Calm,Calm,-,N/A,,Clear,0,2013-01-05 00:34:00
6:54 PM,12.2,8.6,85,30.07,10.0,SW,3.5,-,N/A,,Clear,220,2013-01-05 00:54:00
7:14 PM,8.6,3.2,79,30.08,10.0,West,5.8,-,N/A,,Clear,260,2013-01-05 01:14:00
7:34 PM,12.2,8.6,85,30.07,10.0,Calm,Calm,-,N/A,,Clear,0,2013-01-05 01:34:00
7:54 PM,14.0,8.6,79,30.06,10.0,Calm,Calm,-,N/A,,Clear,0,2013-01-05 01:54:00
8:14 PM,6.8,1.4,79,30.05,10.0,Calm,Calm,-,N/A,,Clear,0,2013-01-05 02:14:00
8:34 PM,6.8,3.2,85,30.05,10.0,Calm,Calm,-,N/A,,Clear,0,2013-01-05 02:34:00
8:54 PM,6.8,-0.4,72,30.05,10.0,Calm,Calm,-,N/A,,Clear,0,2013-01-05 02:54:00
9:14 PM,1.4,-5.8,72,30.05,7.0,NE,3.5,-,N/A,,Clear,50,2013-01-05 03:14:00
9:34 PM,-0.4,-5.8,78,30.05,4.0,Calm,Calm,-,N/A,,Haze,0,2013-01-05 03:34:00
9:54 PM,1.4,-2.2,85,30.05,2.5,Calm,Calm,-,N/A,,Haze,0,2013-01-05 03:54:00
10:14 PM,3.2,-2.2,78,30.05,1.0,Calm,Calm,-,N/A,,Haze,0,2013-01-05 04:14:00
10:34 PM,3.2,-2.2,78,30.05,0.2,Calm,Calm,-,N/A,,Haze,0,2013-01-05 04:34:00
11:14 PM,-2.2,-7.6,78,30.06,0.5,Calm,Calm,-,N/A,,Haze,0,2013-01-05 05:14:00
11:34 PM,-4.0,-9.4,78,30.06,0.2,Calm,Calm,-,N/A,,Haze,0,2013-01-05 05:34:00
11:54 PM,-5.8,-11.2,77,30.04,1.2,Calm,Calm,-,N/A,,Haze,0,2013-01-05 05:54:00